Meacham, OR

2:46 PM PDT on July 20, 2017 (GMT -0700)
Meacham

Weather History for KMEH - January, 2013

Change the Weather History Date:

Thursday, January 24, 2013

  Actual Average Record
Temperature  
Mean Temperature 30 °F -  
Max Temperature 39 °F 34 °F 52 °F (2005)
Min Temperature 21 °F 20 °F 1 °F (1999)
Degree Days  
Heating Degree Days 35    
Moisture  
Dew Point 28 °F    
Average Humidity 87    
Maximum Humidity 96    
Minimum Humidity 70    
Precipitation  
Precipitation 0.06 in - - ()
Sea Level Pressure  
Sea Level Pressure 30.17 in    
Wind  
Wind Speed 0 mph (North)    
Max Wind Speed 0 mph    
Max Gust Speed -    
Visibility 8 miles    
Events Rain , Snow    
Averages and records for this station are not official NWS values.
T = Trace of Precipitation, MM = Missing Value Source: NWS Daily Summary

Daily Weather History Graph

Daily Weather History Graph

Search for Another Location

Airport or City:

Trip Planner

Search our weather history database for the weather conditions in past years. The results will help you decide how hot, cold, wet, or windy it might be!

Date:

Astronomy

Jan. 24, 2013 Rise Set
Actual Time 7:22 AM PST 4:49 PM PST
Civil Twilight 6:50 AM PST 5:21 PM PST
Nautical Twilight 6:14 AM PST 5:57 PM PST
Astronomical Twilight 5:39 AM PST 6:32 PM PST
Moon 2:54 PM PST (1/24) 5:25 AM PST (1/24)
Length of Visible Light 10h 31m
Length of Day
9h 26m
Waxing Gibbous, 95% of the Moon is Illuminated
Jan 24
Waxing Gibbous
Jan 26
Full
Feb 3
Last Quarter
Feb 9
New
Feb 17
First Quarter

Hourly Weather History & Observations

Time (PST) Temp. Dew Point Humidity Pressure Visibility Wind Dir Wind Speed Gust Speed Precip Events Conditions
12:09 AM 30.2 °F 28.4 °F 93% 30.08 in 0.8 mi Calm Calm - 0.03 in Snow Light Snow
12:15 AM 30.2 °F 28.4 °F 93% 30.08 in 1.0 mi Calm Calm - 0.03 in Snow Light Snow
12:37 AM 30.2 °F 28.4 °F 93% 30.08 in 3.0 mi Calm Calm - 0.05 in Snow Light Snow
12:56 AM 30.9 °F 28.9 °F 92% 30.15 in 6.0 mi Calm Calm - 0.05 in   Overcast
1:11 AM 30.2 °F 28.4 °F 93% 30.08 in 7.0 mi Calm Calm - N/A   Overcast
1:56 AM 30.0 °F 28.9 °F 96% 30.17 in 7.0 mi Calm Calm - N/A   Overcast
2:56 AM 28.0 °F 27.0 °F 96% 30.19 in 7.0 mi Calm Calm - N/A   Mostly Cloudy
3:36 AM 28.4 °F 26.6 °F 93% 30.12 in 7.0 mi Calm Calm - N/A   Overcast
3:56 AM 28.9 °F 28.0 °F 96% 30.19 in 7.0 mi Calm Calm - N/A   Overcast
4:19 AM 28.4 °F 26.6 °F 93% 30.12 in 6.0 mi Calm Calm - N/A   Overcast
4:56 AM 28.9 °F 28.0 °F 96% 30.20 in 7.0 mi Calm Calm - N/A   Overcast
5:10 AM 28.4 °F 26.6 °F 93% 30.13 in 7.0 mi Calm Calm - N/A   Overcast
5:56 AM 26.1 °F 25.0 °F 96% 30.22 in 7.0 mi Calm Calm - N/A   Overcast
6:46 AM 24.8 °F 23.0 °F 93% 30.14 in 8.0 mi Calm Calm - N/A   Mostly Cloudy
6:56 AM 24.1 °F 23.0 °F 96% 30.23 in 8.0 mi Calm Calm - N/A   Scattered Clouds
7:56 AM 21.9 °F 19.9 °F 92% 30.26 in 9.0 mi Calm Calm - N/A   Partly Cloudy
8:56 AM 24.1 °F 21.9 °F 91% 30.25 in 8.0 mi Calm Calm - N/A   Clear
9:56 AM 30.0 °F 28.0 °F 92% 30.24 in 10.0 mi Calm Calm - N/A   Clear
10:56 AM 37.9 °F 32.0 °F 79% 30.20 in 10.0 mi Calm Calm - N/A   Partly Cloudy
11:56 AM 39.9 °F 32.0 °F 73% 30.19 in 10.0 mi Calm Calm - N/A   Clear
12:56 PM 39.9 °F 32.0 °F 73% 30.17 in 10.0 mi Calm Calm - N/A   Clear
1:56 PM 39.9 °F 30.9 °F 70% 30.17 in 10.0 mi Calm Calm - N/A   Overcast
2:56 PM 39.0 °F 30.0 °F 70% 30.17 in 10.0 mi Calm Calm - N/A   Mostly Cloudy
3:56 PM 37.9 °F 28.9 °F 70% 30.17 in 10.0 mi Calm Calm - N/A   Scattered Clouds
4:56 PM 34.0 °F 28.9 °F 82% 30.19 in 10.0 mi Calm Calm - N/A   Clear
5:56 PM 33.1 °F 28.9 °F 85% 30.20 in 10.0 mi Calm Calm - N/A   Clear
6:56 PM 35.1 °F 28.9 °F 78% 30.19 in 10.0 mi Calm Calm - N/A   Scattered Clouds
7:56 PM 35.1 °F 30.0 °F 82% 30.20 in 10.0 mi Calm Calm - N/A   Overcast
8:56 PM 36.0 °F 30.0 °F 79% 30.21 in 10.0 mi Calm Calm - N/A   Overcast
9:56 PM 36.0 °F 30.9 °F 82% 30.20 in 10.0 mi Calm Calm - N/A   Overcast
10:56 PM 37.0 °F 30.9 °F 79% 30.17 in 10.0 mi Calm Calm - 0.00 in Rain Light Rain
11:56 PM 35.1 °F 33.1 °F 92% 30.18 in 8.0 mi Calm Calm - 0.01 in Rain Light Rain